Regional Weather Roundup
Issued by NWS

Home | Current Version | Previous Version | Text Only | Print | Product List | Glossary On
Versions: 1 2 3 4 5 6 7 8 9 10 11 12 13 14 15 16 17 18 19 20 21 22 23 24 25 26 27 28 29 30 31 32 33 34 35 36 37 38 39 40 41 42 43 44 45 46 47 48 49 50
000
ASUS44 KLIX 211510
RWRLA
LOUISIANA WEATHER ROUNDUP
NATIONAL WEATHER SERVICE NEW ORLEANS LA
1000 AM CDT SUN SEP 21 2014

NOTE: "FAIR" INDICATES FEW OR NO CLOUDS BELOW 12,000 FEET WITH NO
      SIGNIFICANT WEATHER AND/OR OBSTRUCTIONS TO VISIBILITY.
      SKY/WX - SKY CONDITION AND SIGNIFICANT WEATHER.
      TMP - AIR TEMPERATURE.    DP   - DEWPOINT TEMPERATURE.
      RH  - RELATIVE HUMIDITY.  PRES - PRESSURE.
      HX  - HEAT INDEX.         WCI  - WIND CHILL INDEX.

*  THESE STATIONS ARE NOT NWS OR FAA STATIONS AND ARE NOT UNDER
   NWS QUALITY CONTROL.

LAZ040-048-061>063-065-066-069-211600-
SOUTHEAST LOUISIANA

CITY           SKY/WX    TMP DP  RH WIND       PRES   REMARKS
N.O. AUDUBON     N/A     84  73  67 MISG        N/A
N.O. INTL ARPT MOSUNNY   82  70  66 NE12      30.03R
N.O. LAKEFRONT SUNNY     81  70  69 NE12      30.04R
N.O. DOWNTOWN* FAIR      81  66  61 NE5       30.03S
SLIDELL        SUNNY     80  68  66 NE8       30.04R
BATON ROUGE    SUNNY     80  69  69 NE7       30.05R
BOOTHVILLE     SUNNY     84  73  69 NE9       30.01S
BELLE CHASSE   MOSUNNY   82  71  69 NE9       30.02S
BOGALUSA*        N/A     80  67  64 E5        30.07S
GALLIANO*      NOT AVBL
NEW ROADS*     FAIR      80  68  68 N3        30.06S
GONZALES*      FAIR      80  72  76 NE3       30.04R
HAMMOND*       SUNNY     82  66  57 NE6       30.06S
HOUMA*         MOSUNNY   82  61  47 N7        30.02R
PORT FOURCHON* SUNNY     82  73  74 NE10G18   30.04R

$$

LAZ041-044-053-054-211600-
SOUTHWEST LOUISIANA

CITY           SKY/WX    TMP DP  RH WIND       PRES   REMARKS
LAKE CHARLES   SUNNY     81  71  71 E6        30.04S
LAFAYETTE      SUNNY     81  72  74 E7        30.05R
PATTERSON      SUNNY     81  73  78 NE10        N/A
SALT POINT       N/A     83  74  74 VRB5      30.02R
NEW IBERIA     SUNNY     82  70  66 NE8       30.05R
CHENAULT AIRPK SUNNY     81  72  74 NE3       30.05S

$$

LAZ027-028-211600-
CENTRAL LOUISIANA

CITY           SKY/WX    TMP DP  RH WIND       PRES   REMARKS
FORT POLK      SUNNY     80  68  66 CALM      30.07S
ALEXANDRIA INT SUNNY     82  70  66 CALM      30.05R
ALEXANDRIA     SUNNY     82  72  71 CALM      30.07R

$$

LAZ001-002-211600-
NORTHWEST LOUISIANA

CITY           SKY/WX    TMP DP  RH WIND       PRES   REMARKS
SHREVEPORT     SUNNY     85  67  54 NW5       30.07R
BARKSDALE AFB  SUNNY     83  67  57 NW6       30.08R
DTN SHREVEPORT SUNNY     82  69  64 NW3       30.08R

$$

LAZ014-016-211600-
NORTHEAST LOUISIANA

CITY           SKY/WX    TMP DP  RH WIND       PRES   REMARKS
MONROE         SUNNY     82  71  69 SW3       30.07R
TALLULAH       SUNNY     82  71  69 VRB3      30.07R

$$




USA.gov is the U.S. government's official web portal to all federal, state and local government web resources and services.